Find Local Weather

World > North America > United States > Florida

Panama City, Florida Regional Weather

Lat: 30.17N, Lon: 85.67W
Wx Zone: FLZ012
Feedback
Expires:201810220200;;543803
ASUS42 KTBW 220116
RWRFL 
FLORIDA REGIONAL WEATHER ROUNDUP
NATIONAL WEATHER SERVICE TAMPA BAY RUSKIN FL
900 PM EDT SUN OCT 21 2018

NOTE: "FAIR" INDICATES FEW OR NO CLOUDS BELOW 12,000 FEET WITH NO
SIGNIFICANT WEATHER AND/OR OBSTRUCTIONS TO VISIBILITY.


FLZ001>010-012>015-112-114-115-220200-
PANHANDLE FLORIDA
  
CITY           SKY/WX    TMP DP  RH WIND       PRES   REMARKS
PENSACOLA      FAIR      62  41  46 N10       30.18R                  
PENSACOLA NAS  FAIR      60  44  55 N8        30.17R                  
CRESTVIEW      FAIR      54  43  66 N3        30.20R                  
DUKE FIELD     FAIR      55  42  62 N5        30.18R                  
VALPARAISO     CLEAR     59  43  55 N7        30.17R                  
TRI COUNTY     FAIR      57  46  66 N3        30.19                   
PANAMA CITY    CLEAR     57  46  67 N6        30.15R                  
TYNDALL AFB    FAIR      65  44  45 NE8       30.17R                  

STATION/POSITION SKY/WX   TEMP    WIND        PRES    WAVE   SWELL
                          AIR SEA DIR/SP/G            HT/PER HT/PER
                          (F)     (DEG/KT/KT) (MB)    (FT/S) (FT/S)
30.1N   87.6W              68                 1021.5R   2/ 3
29.2N   88.2W                 82   40/ 16/ 21 1020.6R   4/ 6
PANAMA CITY BEAC           63 80   10/  7/  9 1021.6R
TOWER C                    71      50/ 15/ 16 1020.3R

$$

SKY/WX - Weather  TMP - Temperature  DP - Dew Point  RH - Relative Humidity
WIND - Wind Direction/Speed PRES - Barometric Pressure